Regional Weather Roundup
Issued by NWS

Home | Current Version | Previous Version | Graphics & Text | Print | Product List | Glossary On
Versions: 1 2 3 4 5 6 7 8 9 10 11 12 13 14 15 16 17 18 19 20 21 22 23 24 25 26 27 28 29 30 31 32 33 34 35 36 37 38 39 40 41 42 43 44 45 46 47 48 49 50
000
ASUS45 KCYS 291910
RWRWY

WYOMING REGIONAL WEATHER ROUNDUP
NATIONAL WEATHER SERVICE CHEYENNE WY
100 PM MDT WED MAR 29 2017

NOTE:  "FAIR" INDICATES FEW OR NO CLOUDS BELOW 12,000 FEET
WITH NO SIGNIFICANT WEATHER AND/OR OBSTRUCTIONS TO VISIBILITY.

WYZ001-292000-
YELLOWSTONE NATIONAL PARK

CITY           SKY/WX    TMP DP  RH WIND       PRES   REMARKS
LK YELLOWSTONE   N/A     36  20  52 VRB7      30.16F WCI  30
W YELLOWSTONE  NOT AVBL

$$
WYZ002>013-054>058-071-098>099-292000-
NORTHERN WYOMING

CITY           SKY/WX    TMP DP  RH WIND       PRES   REMARKS
JACKSON        SUNNY     45  25  45 SW6       30.15F
CODY           FAIR      54  22  28 W15G22    30.03F
GREYBULL       FAIR      55  29  36 SE6       30.05F
WORLAND        FAIR      55  30  38 VRB3      30.05F
SHERIDAN       FAIR      56  28  34 NE3       30.02F
BUFFALO        FAIR      56  23  27 SE9       30.03F
GILLETTE       FAIR      57  25  29 MISG      30.02F
HULETT         FAIR      54  34  47 S5        30.04F
NEWCASTLE      FAIR      52  36  54 W6G18     30.06F

$$
WYZ014>020-022>026-101>103-292000-
CENTRAL WYOMING

CITY           SKY/WX    TMP DP  RH WIND       PRES   REMARKS
BIG PINEY      FAIR      47  22  37 S5        30.16F
PINEDALE       FAIR      43  23  45 W12       30.17F
DUBOIS         FAIR      46  19  34 N16G25    30.08F
LANDER         FAIR      52  29  41 SE10      30.05F
RIVERTON       FAIR      49  30  48 SW7       30.07F
CASPER         FAIR      53  26  35 W13       30.07F
DOUGLAS        FAIR      55  29  36 W8        30.06F

$$
WYZ021-027>030-104>119-292000-
SOUTHERN WYOMING

CITY           SKY/WX    TMP DP  RH WIND       PRES   REMARKS
EVANSTON       FAIR      45  24  43 W10       30.21F
KEMMERER         N/A     37  27  65 W18G26    30.18F WCI  27
FORT BRIDGER   FAIR      49  23  36 W12G17    30.22F
ROCK SPRINGS   FAIR      42  26  53 SW14      30.16F
DIXON            N/A     45  28  51 NW5       30.19F
RAWLINS        FAIR      45  28  51 SW12G22   30.13F
SARATOGA       MOCLDY    45  28  53 W9G20     30.14F
LARAMIE        FAIR      43  27  53 NW12G21   30.08F
CHEYENNE       CLOUDY    48  29  47 NW14G23   30.05F
TORRINGTON     PTSUNNY   53  34  48 N10       30.03F
PINE BLUFFS    CLOUDY    46  36  66 N13       30.05F

$$



USA.gov is the U.S. government's official web portal to all federal, state and local government web resources and services.